Location: Unspecified
(0.0000°N, 0.0000°E)
Time: 17:46:59
(UTC+00:00)

STARLINK 1064 - Pass Details

Date: 22 January 2020
Orbit: 549 x 551 km, 53.0° (Epoch: 17 January)

Event Time Altitude Azimuth Distance (km) Brightness Sun altitude
Rises 04:01:01 0° 189° (S) 2,713 7.3 -30.4°
Reaches altitude 10° 04:03:45 10° 171° (S) 1,817 6.6 -29.8°
Maximum altitude 04:06:45 19° 125° (SE) 1,321 6.2 -29.1°
Drops below altitude 10° 04:09:44 10° 78° (ENE) 1,811 6.9 -28.4°
Sets 04:12:27 0° 60° (ENE) 2,701 7.6 -27.8°
